www.pogodaiklimat.ru

Погода и климат >> Архив погоды >> Вьетнам >> Пхульен


ПОГОДА в Пхульене

  • Прогноз погоды в Пхульене
  • Монитор погоды в Пхульене

АРХИВ ПОГОДЫ в Пхульене

Время (UTC), дата Ветер
(напр.,м/с)
 
Видим.   Явления Облачность Т
(С)
Тd
(С)
f
(%)
Тe
(С)
Тes
(С)
Комфортность P
(гПа)
Po
(гПа)
Тmin
(С)
Tmax
(С)
R
(мм)
R24
(мм)
S
(см)
00 18.08 ЮЗ 2 10 км 9/9 600 м
[Cu Sc]
+28.1 +26.5 91 +43 +43 опасность
перегрева
1004.3 991.2 +27.5
03 18.08 Ю 2 10 км 9/9 600 м
[Cu Sc]
+30.0 +27.2 85 +48 +49 опасность
перегрева
1005.2 992.2
06 18.08 ЮЗ 1 10 км 9/8 600 м
[Cu med, cong Cs]
+32.0 +27.9 79 +52 +56 опасность
перегрева
1002.9 990.0
09 18.08 ЮЗ 2 10 км 9/8 600 м
[Cu med, cong Cs]
+32.0 +28.1 80 +53 +54 опасность
перегрева
1001.2 988.3
12 18.08 Ю 2 10 км 8/8 600 м
[Cu Sc]
+29.9 +27.8 89 +49 +49 опасность
перегрева
1001.9 988.9 +33.0
15 18.08 Ю 2 10 км 4/4 1500 м
[Sc]
+29.3 +27.5 90 +47 +47 опасность
перегрева
1003.5 990.5
18 18.08 штиль 0 10 км 8/0
[Cs]
+29.2 +27.2 89 +46 +46 опасность
перегрева
1002.7 989.7
21 18.08 СВ 2 10 км 8/4 1500 м
[Sc Cs]
+29.2 +27.5 91 +47 +47 опасность
перегрева
1001.6 988.6
00 19.08 штиль 0 10 км 10/10 600 м
[Cu Sc]
+28.5 +27.1 92 +45 +45 опасность
перегрева
1002.2 989.1 +27.8
03 19.08 Ю 1 10 км 9/9 600 м
[Cu Sc]
+31.0 +29.3 91 +55 +57 опасность
перегрева
1003.4 990.5
06 19.08 штиль 0 10 км 9/9 600 м
[Cu Sc]
+32.0 +29.5 87 +57 +60 опасность
перегрева
1002.1 989.2
09 19.08 Ю 2 10 км гроза без осадков 10/10 600 м
[Cb cap]
+30.3 +28.6 91 +52 +52 опасность
перегрева
1001.5 988.5
12 19.08 В 3 10 км слаб. ливневой дождь, в посл. час гроза туман 9/4 <50 м
[Cb cap As trans]
+24.0 +23.7 98 +33 +33 очень
душно
1003.3 990.0 +33.4 14
15 19.08 СВ 2 10 км в посл. час дождь 6/6 1500 м
[Sc]
+24.8 +24.8 100 +35 +35 очень
душно
1003.9 990.6
18 19.08 С 2 4000 м дымка {дождь} 9/4 1500 м
[Sc Cs]
+24.6 +24.6 100 +34 +34 очень
душно
1003.7 990.4 0.8
21 19.08 С 3 4000 м дымка 9/0
[Cs]
+25.2 +25.2 100 +36 +36 очень
душно
1002.4 989.2
00 20.08 С 1 6000 м дымка 8/3
[Cu Sc Cs]
+26.4 +25.5 95 +39 +40 очень
душно
1003.4 990.2 +24.0 0.8
03 20.08 штиль 0 6000 м дымка 9/6 600 м
[Cu Sc Cs]
+31.2 +28.3 85 +52 +60 опасность
перегрева
1003.6 990.7
06 20.08 Ю 3 10 км гроза без осадков 10/10 600 м
[Cb cap]
+30.6 +27.8 85 +50 +50 опасность
перегрева
1003.1 990.1 0.8
09 20.08 ЮЗ 1 10 км гроза без осадков 10/6 600 м
[Cb cap As op]
+26.6 +25.7 95 +39 +40 очень
душно
1003.0 989.8
12 20.08 С 3 10 км {гроза} 10/8
[Cu hum As op]
+26.1 +25.9 99 +39 +39 очень
душно
1002.6 989.4 +33.5 0.8
15 20.08 З 2 10 км 9/6 600 м
[Cu med, cong Cs]
+26.3 +25.7 97 +39 +39 очень
душно
1004.6 991.4
18 20.08 СЗ 3 10 км гроза без осадков 10/10 600 м
[Cb cap]
+25.9 +25.7 99 +38 +38 очень
душно
1003.7 990.5
21 20.08 С 2 2000 м гроза, ливневой дождь 10/10 300 м
[Cb cap]
+26.3 +26.3 100 +40 +40 очень
душно
1003.6 990.5
00 21.08 СВ 1 6000 м дымка {гроза, ливн. осадки} 10/10
[Cu Sc]
+25.5 +25.5 100 +37 +37 очень
душно
1004.6 991.4 +24.8 25
03 21.08 Ю 1 10 км 10/8 600 м
[Cu med, cong As op]
+27.6 +26.7 95 +43 +44 опасность
перегрева
1005.9 992.7
06 21.08 Ю 1 10 км 10/8 600 м
[Cu med, cong As op]
+29.4 +27.0 87 +46 +47 опасность
перегрева
1004.6 991.6 25
09 21.08 ЮВ 1 10 км 9/4 600 м
[Cu med, cong Ac lent Cs]
+30.0 +27.1 84 +47 +50 опасность
перегрева
1003.2 990.2
12 21.08 Ю 2 10 км 8/3
[Cu med, cong Cs]
+27.4 +26.0 92 +41 +41 опасность
перегрева
1004.5 991.4 +30.5 25
15 21.08 Ю 2 10 км 8/3 600 м
[Cu Sc Cs]
+27.2 +26.0 93 +41 +41 опасность
перегрева
1006.6 993.4
18 21.08 Ю 2 10 км 10/10 600 м
[Cu Sc]
+27.2 +25.9 93 +41 +41 опасность
перегрева
1005.4 992.3
21 21.08 Ю 2 10 км 10/10 600 м
[Cu Sc]
+26.5 +26.5 100 +40 +40 очень
душно
1005.2 992.0
00 22.08 СВ 2 10 км в посл. час ливневой дождь 9/9
[Cb cap]
+26.1 +25.5 97 +38 +38 очень
душно
1005.9 992.6 +25.0 5
03 22.08 Ю 2 10 км 8/4 600 м
[Cu Sc Cs]
+30.8 +27.3 82 +49 +58 опасность
перегрева
1006.5 993.4
06 22.08 штиль 0 10 км гроза, ливневой дождь 9/9 600 м
[]
+27.3 +26.7 97 +42 +45 опасность
перегрева
1005.2 992.1 1
09 22.08 В 1 10 км слаб. дождь {гроза} 10/8 600 м
[Cu med, cong As op]
+25.9 +25.0 95 +37 +37 очень
душно
1004.3 991.1
12 22.08 С 1 10 км зарница {гроза, дождь} 8/8 600 м
[Cb cap]
+25.2 +24.9 98 +36 +36 очень
душно
1005.6 992.4 +31.8 3
15 22.08 С 2 10 км 10/10 600 м
[Cu Sc]
+25.4 +25.1 98 +36 +36 очень
душно
1007.5 994.2
18 22.08 С 4 10 км 8/5 600 м
[Cu Sc Ci fib]
+25.3 +25.1 99 +36 +36 очень
душно
1007.2 993.9
21 22.08 С 2 4000 м дымка 9/9 600 м
[Cu Sc]
+24.6 +24.4 99 +34 +34 очень
душно
1006.5 993.2
00 23.08 С 2 6000 м дымка 9/9
[Cu Sc]
+25.5 +25.2 98 +37 +37 очень
душно
1007.8 994.5 +24.5
03 23.08 С 1 10 км 9/9 600 м
[Cu Sc]
+29.0 +25.0 79 +42 +44 опасность
перегрева
1008.3 995.2
06 23.08 штиль 0 10 км гроза без осадков {ливн. осадки} 9/9
[Cb cap]
+28.4 +27.0 92 +45 +47 опасность
перегрева
1006.7 993.5 2
09 23.08 штиль 0 10 км {гроза} 8/8 600 м
[Cu Sc]
+29.6 +26.5 83 +45 +47 опасность
перегрева
1005.2 992.2
12 23.08 З 2 10 км {гроза} 9/9 600 м
[Cu Sc]
+26.2 +24.7 91 +37 +37 очень
душно
1006.7 993.4 +30.0 2
15 23.08 СЗ 4 10 км 6/3 600 м
[Cu Sc Cs]
+25.2 +25.2 100 +36 +36 очень
душно
1008.0 994.7
18 23.08 СЗ 4 10 км 8/3 600 м
[Cu hum Cs]
+24.4 +24.4 100 +34 +34 очень
душно
1007.1 993.8
21 23.08 СЗ 3 4000 м дымка 6/1 1500 м
[Sc Cs]
+24.4 +24.4 100 +34 +34 очень
душно
1006.0 992.7
00 24.08 С 3 3000 м дымка 9/9 1500 м
[Sc]
+24.7 +24.7 100 +35 +35 очень
душно
1006.9 993.6 +24.2
03 24.08 С 2 10 км 8/0
[Cs]
+30.3 +26.9 82 +47 +62 опасность
перегрева
1006.8 993.7
06 24.08 З 1 10 км 8/4 600 м
[Cb cap Cs]
+32.4 +27.6 76 +52 +64 опасность
перегрева
1004.4 991.5
09 24.08 С 3 6000 м гроза, ливневой дождь 10/10 300 м
[Cb cap]
+24.3 +24.3 100 +34 +34 очень
душно
1004.8 991.5
12 24.08 С 4 4000 м дымка {гроза, ливн. осадки} 9/3 1500 м
[Sc Cs]
+24.7 +24.5 99 +35 +35 очень
душно
1004.2 990.9 +33.0 23
15 24.08 СЗ 1 4000 м дымка 9/1 600 м
[Cu hum Cs]
+25.7 +24.7 94 +36 +36 очень
душно
1004.9 991.7
18 24.08 З 2 4000 м дымка 9/0
[Cs]
+24.8 +24.6 99 +35 +35 очень
душно
1004.3 991.0
21 24.08 СЗ 3 4000 м дымка 8/0
[Cs]
+24.4 +24.4 100 +34 +34 очень
душно
1004.0 990.7

 

Местоположение метеостанции Пхульен (Вьетнам): широта 20.80 долгота 106.63 высота над уровнем моря 116 м.

В архиве по умолчанию представлена погода в Пхульене за последнюю неделю. Архивные данные за месяц целиком и за предыдущие месяцы, начиная с января 2011 года, Вы можете получить, выбрав интересующий диапазон дат из раскрывающегося списка и нажав кнопку "Ввод!".


*Определитесь, кто Вы:
робот инопланетянин человек

Внимание! Время в таблицах - всемирное. Для получения местного времени необходимо прибавить поправку, которая равна 7 ч.

Смотрите также архив погоды в соседних городах и на ближайших метеорологических станциях:

Погода в Намдине (Вьетнам) (65 км)
Погода в Ханое (Вьетнам) (90 км)
Погода в Хайфоне (Вьетнам) (91 км)
Погода в Лангсоне (Вьетнам) (115 км)
Погода на Бач Лонг Ви (Вьетнам) (135 км)
Погода в Тханьхоа (Вьетнам) (147 км)
Погода в Монгцае (Вьетнам) (160 км)
Погода в Баккане (Вьетнам) (171 км)
Погода в Лончжоу (Гуанси-Чжуанский автономный район, Китай) (175 км)
Погода в Каобанге (Вьетнам) (212 км)

Пояснения к столбцам:

Ветер - указаны скорость ветра в м/с - средняя за 10 мин, порывы в срок и между сроками (в фигурных скобках) и направление, откуда дует ветер: С - северный, СВ - северо-восточный, В - восточный, ЮВ - юго-восточный, Ю - южный, ЮЗ - юго-западный, З - западный, СЗ - северо-западный.
Видимость - горизонтальная дальность видимости в метрах или километрах. При видимости от 1 до 10 км при отсутствии осадков обычно наблюдается дымка, при ухудшении видимости до 1 км и менее - туман. В сухую погоду видимость может ухудшаться дымом, пылью или мглою.
Явления - указаны атмосферные явления, наблюдавшиеся в срок или в последний час перед сроком; фигурными скобками обозначены явления, наблюдавшиеся между сроками (за 1-3 часа до срока); квадратными скобками обозначены град или гололедные отложения с указанием их диаметра в мм.
Облачность - указаны через наклонную черту общая и нижняя облачность в баллах и высота нижней границы облаков в метрах; квадратными скобками обозначены формы облаков: Ci - перистые, Cs - перисто-слоистые, Cc - перисто-кучевые, Ac - высококучевые, As - высокослоистые, Sc - слоисто-кучевые, Ns - слоисто-дождевые, Cu - кучевые, Cb - кучево-дождевые. Подробнее классификацию облаков см. в Атласе облаков (PDF).
T - Температура воздуха - температура, измеренная на высоте 2 м над землей.
Td - Температура точки росы - температура, при понижении до которой содержащийся в воздухе водяной пар достигнет насыщения.
f - Относительная влажность воздуха - влажноcть воздуха, измеренная на высоте 2 м над землей.
Te - Эффективная температура - температура, которую ощущает одетый по сезону человек в тени. Характеристика душности погоды. При расчете учитывается влияние влажности воздуха и скорости ветра на теплоощущения человека.
Tes - Эффективная температура на солнце - температура, которую ощущает человек, с поправкой на солнечный нагрев. Характеристика знойности погоды. Зависит от высоты солнца над горизонтом, облачности и скорости ветра. Ночью, в пасмурную погоду, а также при ветре 12 м/с и более поправка равна нулю.
P - Атмосферное давление - приведенное к уровню моря атмосферное давление.
Po - Атмосферное давление - измеренное на уровне метеостанции атмосферное давление.
Tmin - Минимальная температура - минимум температуры воздуха на высоте 2 м над землей.
Tmax - Максимальная температура - максимум температуры воздуха на высоте 2 м над землей.
R - Количество осадков - Количество выпавших осадков за период времени, мм. При наведении курсора мыши на число - период времени, за который выпало указанное количество осадков.
R24 - Количество осадков - Количество выпавших осадков за 24 часа, мм.
S - Снежный покров - Высота снежного покрова, см. При наведении курсора мыши на число - состояние снежного покрова и степень покрытия местности в баллах.